Flag for Saudi Arabia Weather past 2 weeks in Qatif, Saudi Arabia

Now
93 °F

Clear.


Feels Like: 103 °F
Forecast: 87 / 105 °F
Wind: 7 mph from West

Location: King Fahd International Airport

Current Time: Sep 2, 2014 at 8:17:41 AM

Latest Report: Sep 2, 2014 at 8:00 AM


Visibility: 4 mi

Pressure: 29.56 "Hg

Humidity: 53%

Dew point: 73 °F

Location of QatifLocation

Historic Weather in Qatif — Graph

°F

Qatif temperature yesterday

Maximum temperature yesterday: 109 °F (at 1:00 PM)
Minimum temperature yesterday: 84 °F (at 6:00 AM)
Average temperature yesterday: 96 °F

Past Weeks' High & Low Weather Summary

 TemperatureHumidityPressure
High115 °F (Aug 21, 3:00 PM)84% (Aug 20, 6:00 AM)29.71 "Hg (Aug 20, 6:00 AM)
Low82 °F (Aug 31, 6:00 AM)8% (Aug 22, 3:00 PM)29.45 "Hg (Sep 1, 2:00 PM)
Average96 °F49%29.57 "Hg
* Reported Aug 18 7:00 AM — Sep 2 7:00 AM, Qatif, Weather by CustomWeather, © 2014

Note: Actual official high and low records may vary slightly from our data, if they occured in-between our weather recording intervals... More about our weather records

Advertising

Qatif weather history for previous 24 hours

 ConditionsComfort  
Time TempWeatherWind HumidityBarometerVisibility
7:00 AM
Sep 2
90 °FHaze.6 mph63%29.56 "Hg3 mi
6:00 AM86 °FHaze.3 mph70%29.53 "Hg2 mi
5:00 AM86 °FClear.5 mph70%29.50 "Hg4 mi
4:00 AM86 °FClear.3 mph66%29.50 "Hg10 mi
3:00 AM86 °FClear.3 mph66%29.47 "Hg10 mi
2:00 AM84 °FClear.No wind70%29.50 "Hg10 mi
1:00 AM88 °FClear.No wind66%29.50 "Hg10 mi
12:00 AM88 °FClear.No wind66%29.50 "Hg10 mi
11:00 PM
Sep 1
90 °FClear.No wind63%29.50 "Hg10 mi
10:00 PM91 °FClear.No wind59%29.50 "Hg10 mi
9:00 PM93 °FClear.6 mph49%29.50 "Hg10 mi
8:00 PM95 °FClear.9 mph41%29.47 "Hg10 mi
7:00 PM97 °FClear.10 mph37%29.47 "Hg10 mi
6:00 PM100 °FSunny.12 mph27%29.45 "Hg10 mi
5:00 PM104 °FSunny.13 mph23%29.45 "Hg10 mi
4:00 PM106 °FSunny.14 mph20%29.45 "Hg10 mi
3:00 PM108 °FSunny.12 mph18%29.45 "Hg10 mi
2:00 PM109 °FSunny.10 mph19%29.45 "Hg10 mi
1:00 PM109 °FSunny.2 mph14%29.47 "Hg10 mi
12:00 PM108 °FSunny.5 mph16%29.50 "Hg10 mi
11:00 AM106 °FSunny.2 mph17%29.50 "Hg10 mi
10:00 AM102 °FSunny.6 mph21%29.53 "Hg10 mi
9:00 AM99 °FSunny.6 mph24%29.53 "Hg10 mi
Weather by CustomWeather, © 2014

See weather overviewHow to use our weather pages